Theta_e
354 354 357 361 361 362 363 363 364 364 365 365 366 366 366 366 366 365 365 364 367 367 366 365 365 364 364 363 364 364 363 363 364 365 365 365 364 365 364 361 358 355 359 361 361 363 362 363 363 363 363 364 364 365 364 364 364 364 364 364 364 364 364 364 362 362 362 362 361 360 360 360 361 361 362 362 361 361 361 361 360 357 356 358 360
353 356 358 359 362 361 362 362 363 364 364 365 366 366 365 365 365 365 366 365 365 365 365 365 364 363 363 363 362 362 362 362 362 363 364 364 364 365 363 359 358 355 355 360 361 360 362 362 363 362 363 364 364 364 363 363 364 363 363 364 363 363 363 363 362 362 362 361 361 360 361 361 360 363 363 364 362 362 363 363 362 357 356 360 360
356 356 358 359 361 361 362 362 363 364 365 365 365 365 365 365 365 366 364 364 364 365 365 365 364 363 362 361 361 361 361 362 362 362 363 364 364 365 363 359 357 356 360 361 360 360 361 362 362 362 362 364 364 363 363 364 363 363 363 363 363 363 363 363 362 362 362 363 362 361 361 361 363 362 363 363 363 363 363 362 362 360 355 360 360
355 356 358 360 361 361 362 363 363 364 365 365 365 365 365 365 365 365 365 364 363 363 363 362 362 360 360 361 361 361 360 360 361 362 363 363 364 363 359 357 354 357 360 359 361 362 362 362 363 363 363 363 364 363 362 363 364 363 363 363 363 363 362 361 361 361 361 361 362 360 358 355 357 360 360 361 362 363 363 362 362 361 360 359 359
356 357 358 358 359 361 362 363 363 365 365 365 366 365 366 366 364 364 364 363 363 361 361 360 361 361 361 361 360 361 361 361 361 361 362 362 363 363 357 358 358 358 360 360 361 362 362 362 363 362 362 362 363 363 363 363 364 363 362 363 363 363 363 362 360 360 361 362 361 359 354 354 357 362 361 361 361 361 362 362 362 363 363 362 360
356 358 359 359 359 361 362 363 364 365 365 366 366 366 366 364 364 364 363 362 361 361 361 361 361 361 360 360 360 359 359 360 360 360 360 360 362 363 357 358 358 358 358 360 359 360 362 363 362 362 362 361 362 362 363 363 363 362 362 363 363 363 362 362 361 361 361 361 361 354 354 354 355 356 360 361 361 361 361 361 361 361 361 361 361
358 359 359 359 359 361 362 363 364 366 366 366 366 366 365 365 364 364 362 361 361 361 361 361 361 361 361 360 360 360 360 360 359 359 360 360 361 360 356 357 356 356 357 360 359 361 362 363 363 362 362 362 362 363 362 363 363 363 363 363 363 363 361 361 361 360 361 358 352 352 352 353 354 356 360 361 361 361 360 362 362 361 361 360 360
359 359 359 359 359 362 363 365 365 366 366 366 366 366 365 365 364 361 361 361 361 360 360 361 361 360 360 359 360 360 360 360 360 360 360 360 361 360 355 356 356 355 356 359 360 361 362 362 362 363 363 362 363 363 362 363 363 362 363 363 363 361 362 362 360 361 361 355 351 351 351 353 356 357 360 361 361 360 361 362 362 362 361 360 360
356 358 359 359 360 363 365 365 365 366 366 366 366 365 365 364 364 362 363 362 361 360 360 361 361 360 359 359 360 360 360 360 361 360 360 361 359 356 355 355 355 357 358 359 360 361 362 361 362 362 362 362 362 362 362 363 363 362 362 362 363 361 363 362 361 362 358 355 352 351 352 353 354 355 360 360 361 361 361 361 361 361 360 360 360
356 358 360 359 360 364 365 366 366 366 366 366 365 364 365 364 362 362 364 363 362 361 361 360 360 360 360 360 360 361 361 361 361 361 361 361 360 358 357 357 356 358 359 359 361 361 362 362 362 361 361 361 362 362 362 362 363 362 363 363 363 362 363 363 362 362 355 353 353 354 357 359 353 355 359 361 361 360 361 360 360 359 360 361 360
357 358 359 360 361 365 366 366 366 366 366 366 364 364 364 364 362 364 363 363 363 362 362 361 360 360 361 360 361 361 361 361 361 361 361 361 359 359 358 359 359 359 359 360 361 361 361 361 361 362 362 362 362 361 361 362 363 364 364 364 363 362 362 362 363 356 355 352 352 354 358 360 353 354 360 361 361 361 361 361 361 360 359 359 358
357 358 359 360 366 366 367 366 366 366 366 365 365 365 365 364 363 363 363 363 363 363 363 362 361 361 361 360 360 361 361 361 360 360 361 361 360 361 361 361 361 361 361 361 360 361 361 361 361 361 362 362 362 361 362 364 364 364 363 363 363 363 363 362 358 354 351 351 352 353 353 353 354 356 360 360 360 359 361 361 360 359 359 358 358
356 358 360 362 363 366 366 366 366 366 365 365 364 365 364 364 362 362 363 363 363 362 362 362 362 362 362 362 361 361 361 360 361 361 362 360 361 361 361 362 362 362 361 361 361 361 361 361 362 362 362 362 362 362 363 364 364 364 364 363 363 364 364 362 354 352 352 352 353 353 353 352 354 360 360 360 360 361 360 360 359 359 359 358 358
358 359 360 361 362 368 366 366 366 366 365 365 364 363 364 364 364 363 363 363 363 362 363 363 362 362 362 362 362 362 361 361 361 362 360 358 360 361 362 361 361 362 362 361 362 362 362 362 362 362 362 362 363 363 364 365 365 364 365 364 364 363 362 361 359 354 354 353 355 353 353 355 355 360 359 359 359 359 360 360 359 359 358 358 358
357 357 358 360 362 363 367 366 366 365 365 365 364 364 364 364 364 364 364 363 362 362 363 362 362 362 362 363 362 362 362 362 362 362 359 358 358 361 360 361 361 361 360 361 362 362 362 362 362 362 362 363 363 364 365 364 365 365 365 364 364 362 363 356 355 354 354 355 354 354 353 354 360 361 359 359 359 359 359 359 359 359 358 358 358
357 357 359 359 361 361 362 366 366 366 366 365 365 365 364 364 364 364 363 363 363 363 363 362 361 362 362 363 362 363 362 362 361 361 358 359 360 360 360 361 361 361 361 361 362 362 362 362 362 362 364 363 364 363 365 365 364 364 364 363 362 361 362 359 353 353 353 353 354 355 353 356 361 360 360 360 360 359 360 359 359 358 358 358 358
357 358 357 358 360 360 362 363 364 366 366 366 365 365 364 364 364 364 364 363 363 363 363 362 362 362 363 363 363 362 362 361 361 360 361 361 360 360 360 361 362 361 361 362 362 363 362 362 362 364 364 364 364 364 364 364 364 364 363 361 362 360 362 360 353 353 354 356 356 354 353 356 361 360 361 361 359 360 359 359 359 358 358 358 358
356 356 356 357 358 360 361 362 362 362 362 364 365 364 364 364 364 364 363 363 363 363 363 362 362 362 363 362 363 362 361 362 361 360 360 360 361 361 362 362 362 362 362 362 362 363 363 363 364 364 364 364 363 364 364 364 363 362 362 362 358 361 363 361 354 355 356 359 355 358 357 359 362 360 360 360 360 359 359 359 358 358 358 358 358
354 355 356 355 355 357 361 361 362 361 361 360 360 362 365 365 364 364 364 364 364 363 362 362 362 362 363 362 363 363 362 362 362 362 361 360 362 361 362 362 363 361 362 362 363 363 363 364 365 364 363 363 363 364 364 363 363 362 363 359 362 362 363 359 354 355 356 355 355 355 356 361 361 360 360 360 359 359 359 358 358 358 358 358 358
351 352 352 353 355 358 359 360 360 361 360 360 360 361 364 364 364 364 365 364 363 363 363 363 362 363 362 363 362 360 361 360 362 359 361 361 362 360 362 362 362 362 362 363 362 363 363 364 363 363 363 364 363 363 363 363 361 362 363 360 362 362 354 353 355 355 355 356 357 355 361 360 360 360 360 360 359 359 359 359 358 358 358 358 358
348 349 350 354 356 357 358 358 359 360 360 360 360 361 362 363 362 364 364 363 363 363 363 363 361 361 361 362 363 359 358 358 357 357 361 359 361 362 363 363 362 362 362 362 363 363 363 364 364 364 364 363 363 363 362 361 362 362 363 362 360 353 353 355 356 357 356 357 359 356 361 361 360 360 360 359 359 360 359 359 359 358 358 357 358
344 345 352 354 355 357 357 358 358 359 360 361 361 362 361 362 360 360 361 361 363 363 360 359 363 359 363 359 359 360 358 357 358 362 359 361 360 363 363 363 362 363 364 364 364 364 364 364 364 364 363 363 363 358 360 362 361 362 362 362 360 351 353 354 355 355 356 356 358 360 362 361 360 361 360 359 359 360 359 358 358 358 358 357 358
343 346 350 354 355 357 358 357 358 359 359 359 361 361 359 359 360 360 361 363 362 362 360 360 357 357 357 357 358 357 358 359 358 361 361 362 361 364 364 363 363 364 364 365 365 365 365 365 365 364 364 363 360 356 357 358 359 364 363 363 352 352 352 353 354 354 354 356 355 360 361 360 360 361 360 359 360 360 359 359 358 358 358 357 358
346 348 350 354 356 356 356 357 358 358 358 358 359 358 359 359 359 359 359 359 359 361 359 359 357 356 355 355 357 357 358 358 361 364 364 358 359 363 364 363 364 364 364 363 365 365 365 365 365 365 365 362 355 355 355 354 354 357 359 354 353 352 352 353 353 353 354 358 357 361 360 360 360 360 360 360 360 360 359 358 358 358 358 358 358
349 351 352 353 355 356 356 356 357 358 358 359 358 358 359 358 358 360 360 358 358 358 358 358 359 357 354 354 356 358 358 357 357 357 356 357 356 357 359 359 359 359 364 357 358 361 362 360 361 365 360 360 357 353 353 353 357 357 353 353 352 351 352 353 353 352 353 355 357 361 361 360 360 360 360 360 360 360 359 358 358 358 358 358 358
350 349 350 353 356 357 357 357 358 358 358 358 358 360 360 356 357 359 359 358 358 357 358 358 359 359 356 355 356 357 357 358 359 356 356 356 355 355 356 358 357 358 362 356 358 359 359 360 360 360 360 360 358 353 353 355 353 353 351 352 352 352 353 353 353 353 354 354 359 362 361 361 361 360 360 360 360 360 359 358 357 357 358 358 358
348 348 351 354 356 357 357 357 356 357 358 358 359 359 356 356 357 359 357 356 357 356 357 358 360 361 361 360 356 355 355 356 356 355 356 357 355 355 355 357 357 357 364 358 358 359 359 358 358 358 359 359 355 350 351 352 350 350 350 351 352 351 353 354 354 353 354 356 359 362 361 361 361 360 360 360 359 359 359 359 358 358 358 357 357
348 350 352 354 356 356 357 357 356 356 357 358 357 355 357 359 360 363 357 361 359 356 354 356 359 359 361 358 359 354 353 353 355 355 355 356 356 354 356 356 358 358 359 362 358 359 359 356 357 356 354 354 348 347 347 348 347 346 349 350 350 350 352 353 354 354 354 355 357 362 362 362 361 361 360 359 359 359 359 359 359 358 357 357 357
348 350 352 354 355 356 356 357 357 357 358 358 355 356 357 358 358 354 353 362 355 356 356 355 356 358 362 356 358 354 352 353 354 354 355 355 353 353 355 356 358 358 357 359 356 354 358 359 360 353 350 345 346 342 343 344 344 347 346 348 349 349 350 352 353 354 354 356 357 360 362 362 362 361 360 359 359 359 359 359 359 358 357 357 357
348 352 353 353 355 357 356 357 358 357 358 358 357 356 354 354 353 352 353 359 353 356 359 355 356 357 359 360 360 356 354 352 352 353 354 356 354 354 355 355 355 357 357 357 356 358 359 356 356 356 353 352 344 344 350 345 345 345 346 345 346 348 349 352 353 353 354 355 356 360 363 362 362 362 361 360 359 360 359 358 358 358 358 358 358
349 350 352 353 357 356 356 357 357 361 356 356 356 353 353 352 353 351 354 354 354 356 359 357 357 359 361 361 359 359 360 355 356 356 356 356 357 359 358 357 357 357 359 357 362 363 363 360 357 354 355 363 349 352 350 348 346 345 349 345 344 346 348 351 353 353 354 353 355 356 361 363 362 362 361 360 359 358 359 359 358 358 358 357 357
346 349 351 354 356 356 355 356 358 358 356 356 357 352 349 350 353 351 354 354 358 356 357 357 358 357 358 360 358 354 360 358 359 359 357 357 357 359 358 356 358 359 357 355 356 362 364 361 361 356 358 359 352 350 350 348 349 345 344 344 345 345 346 349 351 352 352 353 355 356 357 359 363 362 361 361 360 360 359 359 358 358 359 358 358
347 349 350 353 354 355 355 355 357 358 355 355 355 351 351 351 352 351 354 357 358 355 356 355 356 357 359 361 356 358 360 359 361 359 362 358 359 358 357 361 361 361 360 362 364 365 361 359 359 360 358 359 353 355 353 347 346 347 345 343 345 345 346 347 347 349 350 352 353 355 356 358 359 362 361 361 360 360 360 360 359 359 359 359 357
347 349 350 350 352 353 354 354 355 354 354 355 355 353 352 352 354 354 356 355 355 355 357 357 360 362 362 360 360 363 363 363 361 361 357 358 359 357 356 359 361 363 363 360 360 364 361 356 358 359 361 357 351 348 350 348 348 351 347 349 349 348 346 342 346 349 350 350 352 353 354 355 355 356 358 361 361 360 361 359 359 359 360 358 358
349 349 348 349 350 351 353 353 355 354 357 357 356 354 355 356 354 353 353 354 356 357 359 361 361 361 360 358 359 363 364 361 361 359 361 356 357 358 357 357 360 362 362 363 360 362 359 356 355 355 357 354 353 360 350 345 347 352 348 349 348 349 351 344 343 347 350 352 352 351 352 353 353 355 358 357 363 361 361 361 361 361 361 360 360
348 348 348 349 349 350 354 352 353 353 355 356 356 355 355 354 354 358 354 356 355 357 358 360 361 362 362 360 363 366 364 362 360 360 356 357 356 359 358 358 360 361 364 363 363 358 358 360 362 357 355 353 352 349 350 350 348 347 351 349 351 360 348 348 349 345 347 350 352 353 354 355 355 355 361 355 356 360 362 362 362 362 361 361 361
347 347 346 346 347 351 354 352 351 352 354 357 357 356 356 355 356 355 355 355 356 357 356 359 361 362 361 362 364 367 363 363 363 363 360 358 357 357 360 361 362 359 361 363 361 365 361 363 358 361 358 351 353 349 348 355 350 346 348 348 353 356 352 353 354 347 351 348 347 351 355 356 358 365 359 354 354 355 360 363 363 363 362 362 362
347 347 346 347 347 350 351 351 350 352 353 355 357 356 356 355 355 356 360 355 357 357 359 361 362 362 363 363 365 366 365 363 363 363 362 361 359 359 360 361 362 363 364 361 359 359 358 359 356 359 362 358 352 352 349 350 351 348 348 351 355 351 350 354 353 363 352 350 348 347 350 356 359 360 359 355 354 352 354 360 365 364 363 363 363
346 346 346 346 346 348 351 353 350 351 354 355 358 357 356 355 355 355 355 357 357 358 360 361 361 361 363 365 365 365 366 364 364 364 359 360 359 360 361 362 364 363 361 358 359 360 362 359 358 358 364 361 356 356 352 356 346 350 346 348 349 349 354 350 358 351 349 350 349 354 350 349 353 355 356 356 356 355 353 351 356 359 359 364 364
345 346 347 346 345 349 350 351 351 353 354 354 358 354 353 353 351 352 352 355 356 357 358 360 360 361 363 364 363 363 364 365 363 362 361 360 359 358 356 363 363 361 360 356 356 355 355 357 355 361 358 361 359 356 354 352 345 347 357 350 350 349 350 352 348 348 352 347 349 351 345 348 348 349 351 352 358 359 355 351 356 355 356 359 364
344 346 345 344 346 349 350 349 352 353 352 351 353 351 351 350 351 349 348 352 354 356 356 358 360 361 361 362 362 361 359 361 363 362 362 364 359 359 359 360 361 362 359 359 358 360 356 359 360 363 360 356 355 355 353 350 345 340 346 346 341 348 356 355 348 346 346 347 344 345 344 347 346 344 347 347 357 359 356 353 354 355 354 354 358
344 345 344 343 346 348 349 351 352 353 353 351 353 353 354 350 349 350 350 352 354 353 352 354 358 362 361 361 360 358 357 358 361 363 361 360 360 358 360 359 362 360 360 361 360 368 362 359 359 356 360 358 351 354 352 348 344 339 338 337 342 344 352 346 342 343 343 342 342 344 344 343 342 343 346 345 352 356 357 356 357 357 357 357 357
343 343 344 342 345 346 349 352 352 353 353 353 352 352 354 354 351 351 351 352 355 356 355 358 360 361 360 360 360 358 356 356 359 363 361 361 359 358 361 361 362 364 358 358 359 360 359 360 359 356 355 356 356 356 351 346 340 343 346 341 332 334 340 342 345 345 344 341 341 341 343 342 342 340 339 341 345 351 354 353 355 358 359 360 359
342 342 343 341 345 347 348 351 352 353 353 354 356 353 355 353 355 353 354 354 352 357 355 357 359 360 358 361 359 358 356 356 359 362 362 361 359 359 362 361 361 362 360 357 356 357 358 358 359 361 359 350 347 343 351 351 345 338 331 335 335 335 329 333 339 343 342 340 339 340 341 341 339 339 341 341 343 345 349 349 349 353 358 360 360
341 341 343 341 345 346 348 350 351 352 353 355 356 352 357 351 358 354 355 355 355 352 352 353 357 359 357 357 357 359 358 358 359 361 363 360 360 362 362 363 362 363 363 359 357 358 358 359 359 359 356 350 348 344 350 351 351 354 350 338 334 332 333 334 336 339 344 337 337 336 347 338 339 342 342 343 345 346 343 345 352 353 353 353 355
339 341 344 342 346 348 350 351 350 352 353 353 355 353 356 349 351 348 346 347 347 347 346 348 352 355 354 357 358 359 360 358 358 361 361 362 361 361 362 363 362 364 363 360 359 361 357 357 357 359 357 357 353 342 339 352 348 354 353 346 339 332 332 335 335 326 342 350 338 330 338 336 335 341 345 344 345 344 349 348 351 351 352 354 356
339 342 343 344 347 349 351 353 350 351 354 352 357 356 353 349 351 348 348 348 347 348 349 351 353 354 358 358 359 359 359 360 359 361 361 363 364 361 361 360 362 362 366 361 359 356 357 356 360 360 359 362 357 351 340 343 349 354 349 346 347 355 345 341 330 340 328 331 346 334 333 334 335 338 343 336 340 342 347 350 351 351 354 355 354
340 342 343 345 348 349 350 353 353 351 354 351 357 355 352 350 350 350 351 351 349 349 351 351 354 354 355 357 359 358 358 357 356 359 362 361 365 361 362 362 362 362 366 361 359 356 357 361 361 363 364 366 357 350 345 347 340 342 357 348 347 348 345 343 342 337 333 333 330 338 335 336 335 335 340 335 339 341 344 349 349 350 351 352 355
341 341 343 344 349 351 350 352 353 351 354 350 356 355 356 352 350 351 351 354 352 351 355 355 353 357 353 354 357 355 355 355 358 363 362 362 367 362 363 363 363 362 366 362 361 360 359 359 358 359 361 358 358 361 353 350 345 344 351 348 347 347 344 343 341 340 340 333 335 330 330 337 338 339 340 339 337 338 341 343 347 350 352 351 357
341 342 342 346 350 351 351 352 352 353 354 350 356 355 356 355 353 351 351 351 354 353 352 353 353 355 354 355 356 355 355 357 360 363 361 365 364 365 364 363 361 362 365 360 360 359 361 359 360 362 360 357 361 359 349 354 350 349 351 350 344 345 343 346 341 337 339 336 330 332 333 330 330 337 346 334 335 337 339 343 351 349 351 360 360
341 341 341 347 350 350 351 351 352 354 355 351 355 356 355 354 354 351 351 349 352 350 349 352 353 354 355 355 356 357 355 355 361 362 363 363 365 367 363 364 362 366 364 357 359 359 362 361 361 361 360 357 358 358 357 359 358 352 349 352 346 347 343 340 337 338 339 335 338 336 336 334 332 333 339 342 343 339 347 348 347 350 354 356 358
Wind_Speed
6 7 6 12 12 12 13 13 11 10 8 11 12 12 12 12 12 12 11 12 12 12 12 12 13 13 12 13 13 12 12 12 12 13 14 15 16 16 16 23 21 12 11 18 17 15 15 14 14 14 16 16 16 16 17 17 17 16 16 16 17 17 17 17 17 17 17 16 16 16 15 15 16 15 15 15 15 16 18 17 15 10 7 12 17
10 7 6 7 12 13 14 13 12 10 9 11 11 11 11 12 12 12 13 12 11 11 12 14 14 13 13 12 12 12 11 11 12 13 14 15 15 16 17 22 20 10 9 14 17 15 14 14 15 15 15 16 15 16 17 18 17 16 16 16 16 17 17 17 17 16 16 16 15 16 16 15 16 15 14 14 16 18 18 17 15 8 7 15 17
9 8 7 7 13 13 14 12 9 8 8 11 11 11 12 12 13 13 12 11 12 12 14 15 14 13 13 13 12 11 11 11 11 12 13 13 15 16 19 23 19 12 13 16 15 14 14 14 15 15 16 15 15 16 16 17 16 15 15 17 17 16 17 16 16 16 16 17 17 16 16 17 16 14 14 15 17 17 17 16 15 13 10 17 15
11 7 7 11 14 12 11 10 9 8 10 11 11 12 12 12 12 12 11 12 13 12 12 12 12 11 12 12 11 11 10 11 11 12 13 14 14 15 19 23 16 14 12 15 14 13 14 15 15 14 15 16 17 16 15 16 17 16 16 16 16 16 17 16 15 15 16 17 16 13 6 6 10 16 16 17 18 18 17 16 17 16 17 16 17
12 9 7 7 8 9 10 10 9 9 12 11 11 12 12 13 13 11 12 13 13 12 13 11 13 12 12 11 11 11 11 10 11 12 13 14 14 14 20 21 18 14 14 17 15 13 13 14 14 15 15 16 17 16 14 15 16 16 17 16 17 16 16 15 15 16 16 16 15 9 6 7 6 13 16 17 17 18 17 17 16 16 16 17 17
11 9 8 7 7 7 11 10 11 12 11 11 12 12 13 12 12 12 14 13 11 11 10 10 11 12 11 10 11 10 11 11 11 11 12 13 14 14 20 22 17 13 10 15 16 13 13 14 13 14 16 16 16 17 16 14 15 16 16 16 15 15 14 15 15 16 16 15 11 5 6 5 6 7 16 16 16 17 16 16 16 16 16 17 17
13 9 9 8 6 8 12 12 13 12 11 12 13 12 12 12 12 12 13 12 12 10 10 12 13 13 12 11 12 12 11 10 10 12 12 13 14 15 20 22 17 11 9 13 16 14 14 14 13 14 15 15 16 16 17 16 15 15 15 15 14 14 15 13 14 15 15 8 5 4 5 6 6 4 15 15 16 16 16 15 15 16 16 16 16
11 9 9 8 7 10 12 12 12 12 12 12 13 12 12 12 11 12 13 12 12 11 12 14 13 11 11 12 11 12 12 12 12 12 12 12 13 18 19 24 13 9 8 12 16 13 14 14 13 13 15 15 15 15 16 16 16 15 15 14 14 13 11 10 13 15 11 4 5 5 5 6 7 5 14 14 14 14 14 14 14 14 16 16 15
11 11 10 10 9 14 12 12 12 12 12 12 13 12 11 10 10 11 13 12 11 12 12 13 13 13 12 12 13 13 13 13 13 13 13 13 15 21 21 17 12 11 11 14 14 13 12 13 13 14 14 15 16 15 16 16 15 14 14 13 12 13 12 11 14 12 6 4 5 5 5 4 6 5 12 14 13 13 14 13 13 16 16 15 15
12 10 10 8 9 15 13 13 12 12 12 13 12 12 11 10 10 11 12 12 12 12 12 12 13 12 13 13 13 13 13 13 14 14 14 15 17 18 18 16 13 9 12 15 12 12 13 13 14 13 14 16 16 16 16 16 15 14 13 13 13 12 10 12 14 8 5 5 6 6 7 9 6 6 11 12 12 13 14 14 13 13 12 15 15
13 10 9 9 11 14 14 13 13 13 13 13 12 11 11 11 11 12 12 12 12 12 12 12 13 13 13 14 13 13 14 14 13 14 15 16 19 20 17 16 12 10 12 16 14 13 13 14 14 13 14 15 16 15 16 14 13 12 10 12 13 12 10 12 9 4 4 7 6 6 9 11 5 5 13 13 13 13 15 15 16 15 15 15 14
13 11 9 8 14 14 13 13 13 13 13 12 12 11 11 11 11 12 12 11 12 12 13 13 13 13 14 13 13 14 14 14 14 14 15 17 18 18 18 17 14 12 13 15 15 13 14 15 15 16 15 15 16 15 14 12 11 10 10 10 9 8 9 10 5 5 5 6 6 6 6 6 5 9 15 13 13 14 15 15 15 14 14 14 14
14 10 9 8 8 13 13 13 13 13 13 12 12 12 11 12 13 12 12 12 13 13 14 14 13 14 13 14 14 14 13 14 14 14 15 18 16 16 17 16 15 14 14 15 16 14 12 15 15 14 14 15 15 12 11 11 10 10 10 9 6 4 4 8 5 8 7 6 6 6 5 4 5 11 13 14 14 14 15 15 14 13 13 13 13
12 11 9 8 7 14 13 13 13 13 13 13 12 11 11 12 13 12 12 13 13 13 14 14 14 14 14 14 14 14 14 14 14 14 17 18 15 14 16 16 15 14 14 15 15 15 14 15 16 15 14 14 13 12 11 10 9 9 9 8 7 8 14 11 9 7 7 6 5 5 5 4 5 10 13 13 14 14 14 14 13 13 13 13 12
14 12 11 8 8 8 15 14 13 13 13 13 12 11 11 12 13 13 13 13 12 13 14 13 13 14 15 14 14 14 13 12 13 14 18 19 14 14 16 15 14 13 15 15 15 14 14 15 15 15 16 14 12 11 10 10 9 8 8 9 10 12 13 7 7 7 7 7 5 5 4 4 10 10 13 13 13 14 14 13 13 13 13 12 11
15 13 11 9 8 8 8 12 13 13 13 13 12 11 11 12 13 13 14 13 13 13 13 13 14 14 15 14 14 15 14 14 15 15 18 19 16 14 15 15 15 15 15 15 14 15 15 15 15 15 13 12 10 10 10 9 8 8 7 6 7 11 14 8 6 5 5 5 4 3 4 5 11 12 12 13 13 13 13 12 12 12 12 11 11
13 13 12 11 10 7 7 7 9 14 13 13 12 12 12 12 13 14 14 14 14 13 13 13 14 15 14 15 15 15 15 15 14 17 19 17 16 15 16 17 15 14 16 16 16 15 15 15 14 12 12 11 10 9 9 9 7 6 5 6 11 16 16 10 6 6 6 6 4 4 4 4 9 11 12 13 13 12 12 12 12 11 11 11 10
14 13 11 11 9 8 7 6 7 6 6 9 12 12 12 13 13 13 14 14 14 14 14 14 14 14 15 15 15 15 16 15 15 16 18 18 16 16 16 16 16 16 16 16 15 15 15 14 13 11 10 10 9 8 8 7 6 5 3 3 15 15 15 12 6 6 6 6 5 4 3 8 10 11 12 12 12 12 12 11 10 10 10 10 9
12 13 12 11 10 8 8 6 5 6 5 4 4 8 13 12 13 13 14 14 14 14 14 14 15 15 15 15 15 16 15 16 16 16 17 18 16 16 15 16 17 17 17 16 15 14 14 13 11 10 10 9 9 7 7 5 5 3 4 12 14 14 16 9 6 6 5 4 4 4 4 8 9 11 12 12 12 11 11 10 10 10 9 9 9
12 12 11 9 9 9 7 6 6 6 5 4 4 5 10 13 13 13 14 14 14 14 15 14 14 14 15 15 15 11 12 12 16 14 17 17 16 14 16 16 17 17 16 16 15 14 13 12 11 10 10 9 8 7 5 4 3 4 9 13 14 13 7 5 7 5 4 4 4 3 6 9 10 10 11 11 11 10 10 9 9 9 9 8 8
10 11 9 9 10 10 8 6 6 6 6 6 5 5 8 12 11 13 14 15 14 15 15 14 13 13 11 13 11 6 4 5 7 7 13 10 15 16 16 16 15 15 15 15 14 13 12 11 10 10 9 9 7 6 5 3 3 3 6 9 6 5 7 7 6 4 4 4 4 4 8 9 9 10 10 10 10 10 9 8 8 8 8 8 8
9 8 10 10 9 8 9 7 5 7 7 5 4 4 5 8 5 5 6 9 12 12 9 7 7 5 10 8 5 3 4 4 5 8 5 9 11 16 15 15 15 14 14 13 13 13 12 11 10 10 10 8 7 2 1 2 2 2 3 3 2 6 7 7 5 4 4 3 3 5 9 9 9 9 9 9 9 9 8 7 7 7 7 7 7
8 9 8 10 7 7 8 7 7 7 7 5 5 5 5 5 5 5 6 8 8 7 6 6 3 5 5 5 4 3 4 4 4 7 6 12 11 14 14 14 14 13 12 12 12 12 12 11 10 9 9 9 4 2 1 1 1 2 1 1 5 6 7 7 6 4 5 4 3 7 9 9 9 9 9 9 8 7 7 7 6 6 6 6 7
8 8 9 8 8 8 8 8 8 7 7 5 5 5 4 4 4 5 5 4 4 5 4 4 5 4 5 5 4 3 3 4 11 14 11 5 8 13 14 13 13 11 11 7 10 10 11 10 10 10 7 3 3 3 3 4 4 3 1 3 5 7 7 6 5 4 4 4 3 9 8 9 8 9 8 8 7 7 6 6 6 5 5 5 6
7 8 8 8 8 9 8 8 7 6 7 6 6 5 4 4 4 4 4 5 4 4 4 3 3 5 4 4 4 3 4 6 5 5 5 5 5 4 4 3 3 4 6 2 2 2 4 3 3 4 2 2 2 3 4 3 3 2 5 3 5 6 6 5 5 4 4 3 3 8 8 8 8 8 8 7 7 6 6 5 5 5 5 5 5
7 8 7 8 8 8 8 8 7 6 6 6 6 6 6 4 4 4 4 4 4 4 3 3 3 4 4 4 3 4 4 5 4 5 4 5 5 4 4 3 3 3 2 2 1 2 1 1 2 2 4 4 4 4 4 3 2 2 3 4 7 6 6 5 5 4 4 4 3 8 8 7 7 7 8 7 6 6 5 4 4 4 4 4 4
7 7 7 7 8 8 7 7 8 6 7 6 5 5 5 4 4 5 4 4 4 4 4 3 2 2 3 4 4 5 4 4 5 5 5 4 4 4 4 4 3 2 2 3 3 3 3 4 4 5 4 5 5 4 3 3 4 4 4 4 5 7 6 5 5 4 4 3 4 8 7 7 7 7 7 7 6 5 4 4 4 4 4 3 3
8 9 8 8 8 9 7 7 8 7 6 6 6 6 4 5 4 5 4 5 4 5 4 3 3 2 2 4 5 5 4 4 4 5 4 3 3 3 4 3 3 2 2 1 4 5 5 5 5 5 5 6 6 5 4 4 3 4 7 4 4 5 6 6 6 5 5 4 2 6 7 7 7 7 7 7 6 6 5 4 4 3 2 3 3
11 9 8 9 9 9 7 8 8 8 6 7 7 5 4 4 5 4 4 5 4 4 5 4 4 2 2 4 4 5 4 5 4 5 4 4 4 5 4 4 3 2 1 3 3 4 3 5 6 7 7 5 2 5 5 5 4 3 6 8 6 5 6 6 6 5 5 5 5 5 8 7 7 7 6 6 6 5 5 4 3 3 3 3 2
11 10 9 8 8 8 9 9 8 8 7 7 6 5 4 6 5 4 3 4 3 3 3 4 4 4 4 3 3 5 5 5 5 5 4 4 5 4 4 4 4 3 3 4 3 1 4 2 2 1 2 3 5 4 4 6 5 4 4 6 7 7 7 6 6 6 5 5 4 5 10 8 8 7 6 6 6 5 5 5 4 4 5 5 5
12 12 10 8 8 8 9 7 7 7 6 7 6 5 4 5 4 5 4 4 4 4 4 4 4 4 2 2 4 3 3 4 3 4 5 6 5 4 3 3 4 4 3 3 3 3 2 1 2 2 1 1 6 4 4 4 5 5 3 5 6 7 7 6 6 6 6 5 5 4 4 9 8 7 7 7 6 6 6 6 6 6 7 6 6
12 12 9 9 9 10 9 8 8 7 6 8 7 7 5 5 4 4 5 5 5 6 5 4 4 4 3 3 4 4 3 3 3 3 5 5 4 4 3 3 3 3 3 3 3 4 3 3 3 3 3 3 4 5 5 5 3 4 6 4 5 6 6 7 7 7 7 6 6 5 4 5 9 8 8 8 7 7 6 6 6 7 5 7 6
9 12 11 12 12 11 9 9 8 6 6 8 7 7 5 5 5 6 5 6 5 5 6 5 4 4 3 4 4 4 3 4 3 3 3 4 3 3 3 2 1 2 2 1 0 2 2 1 1 0 1 1 2 2 3 5 5 3 4 5 5 5 5 8 6 7 7 7 6 6 6 5 4 8 9 9 9 8 8 8 8 7 7 7 6
10 8 12 13 11 9 8 8 8 8 7 7 7 6 7 6 6 5 5 6 5 6 7 6 5 4 4 4 4 3 2 3 4 4 4 4 4 4 3 2 3 2 2 2 3 1 4 5 4 4 3 1 3 4 3 3 4 3 3 2 2 3 5 6 7 7 7 7 6 6 6 6 5 5 5 9 10 10 10 10 9 9 9 8 8
10 10 9 11 9 10 8 7 9 8 7 7 8 7 8 7 6 6 5 5 5 5 7 6 6 5 5 5 4 3 3 4 4 5 4 4 4 3 3 3 3 3 3 2 3 2 4 3 4 4 3 4 2 1 3 4 3 3 3 3 2 1 4 6 6 6 6 6 6 6 5 5 5 5 5 5 8 11 11 11 11 10 10 9 9
13 11 9 10 10 9 8 8 7 8 6 6 4 5 6 5 7 6 5 3 4 5 6 6 6 5 6 5 4 3 4 4 3 3 4 3 4 4 4 2 3 3 2 2 2 2 3 4 3 3 4 3 4 2 3 3 4 4 4 4 2 2 3 3 2 6 7 6 6 6 6 6 6 6 6 5 5 7 13 12 12 11 11 10 10
13 10 10 9 10 9 11 8 8 9 8 6 6 4 4 5 7 7 7 5 5 5 6 6 5 5 5 5 4 4 4 4 3 3 4 3 3 4 3 3 3 3 2 1 2 0 1 2 2 2 2 2 3 2 2 2 4 4 3 3 5 3 2 2 2 3 4 6 7 8 7 7 7 9 6 6 5 5 9 13 12 12 12 11 11
11 11 9 10 10 10 10 8 6 9 6 6 5 6 6 7 5 6 6 6 5 4 5 6 5 5 5 5 4 5 4 3 3 2 3 3 3 3 3 2 2 2 2 3 1 1 3 2 1 2 2 2 3 3 4 2 2 3 5 3 3 3 3 3 3 3 4 4 5 4 7 8 7 7 7 6 6 5 5 9 12 12 12 11 11
10 11 8 9 9 9 9 7 7 8 7 5 4 5 7 6 5 5 6 5 5 4 5 6 5 5 4 5 4 4 5 4 3 3 4 3 3 3 4 3 2 3 3 3 2 3 3 2 2 1 2 1 2 2 3 2 4 2 3 3 4 3 3 4 3 4 4 5 5 5 5 6 7 7 7 6 6 6 6 5 5 5 7 11 12
10 9 9 8 9 8 8 7 6 6 6 5 4 5 6 7 6 5 5 5 6 5 4 5 5 5 4 4 3 3 3 4 4 3 4 4 3 3 3 1 2 2 2 2 2 2 1 0 1 0 1 1 2 3 2 1 3 3 3 2 3 3 1 4 4 4 5 5 6 5 6 5 5 5 6 6 6 6 6 6 6 6 5 7 11
10 9 9 9 9 9 10 9 7 6 6 6 5 5 4 6 5 5 5 4 5 5 5 4 5 5 5 4 3 3 2 3 3 3 3 3 2 2 3 2 2 2 2 2 1 1 2 1 1 1 0 1 1 1 2 2 4 1 2 0 1 2 2 3 4 4 5 6 6 5 5 6 7 5 6 6 7 7 7 6 6 5 5 5 6
10 10 9 10 8 11 11 9 8 6 5 5 5 4 3 6 6 5 4 4 5 6 5 5 5 6 6 5 4 3 2 2 2 3 3 3 2 2 2 2 2 3 2 1 0 0 2 1 0 1 0 0 1 1 1 3 0 2 1 1 2 3 3 4 3 4 4 5 6 6 4 5 7 5 4 7 7 6 7 6 5 5 5 5 5
12 11 8 9 9 9 10 9 8 8 6 5 5 4 3 5 5 5 6 4 2 3 4 3 5 6 6 5 4 4 4 3 2 2 4 3 4 3 3 2 4 3 3 1 0 1 2 3 3 2 2 1 2 3 2 2 1 2 2 2 0 0 2 2 3 4 6 6 5 6 5 7 7 6 6 7 7 6 5 4 5 6 5 6 6
11 10 9 10 8 8 8 10 9 8 7 5 4 5 4 6 4 8 7 7 5 4 3 3 4 5 5 5 3 4 3 3 2 2 3 3 4 3 2 4 3 3 3 2 2 2 2 3 1 1 0 2 2 1 3 2 1 2 1 1 1 1 2 3 4 5 6 7 7 6 3 7 6 5 5 5 5 6 6 5 5 6 6 7 6
11 11 10 11 6 10 9 9 9 8 7 7 5 6 5 6 3 7 5 6 5 5 4 2 2 4 4 3 4 3 4 3 3 3 2 3 3 2 3 4 4 3 2 2 2 4 3 3 3 2 2 1 2 2 1 2 2 3 2 1 2 1 2 3 1 4 1 3 6 4 4 7 6 6 5 5 4 5 6 5 4 4 4 4 4
11 11 10 11 7 9 8 8 8 7 8 7 5 6 5 6 5 7 6 6 6 6 6 6 4 5 6 4 2 3 4 3 3 3 2 2 3 3 3 3 3 4 4 3 3 1 3 3 4 3 3 2 2 2 1 1 0 0 2 4 4 1 1 3 2 0 4 1 3 6 7 7 7 8 7 6 5 6 5 5 4 4 5 4 6
11 11 10 10 9 9 8 8 8 7 7 7 5 5 5 5 5 7 7 7 7 5 5 5 5 5 4 5 6 5 4 4 4 3 4 3 3 3 3 3 3 4 3 2 2 3 3 4 3 2 2 0 0 0 1 2 2 2 3 3 2 2 2 1 1 0 1 1 2 1 3 5 5 5 6 7 7 6 5 5 5 6 5 5 6
12 11 11 10 11 10 9 6 7 8 5 7 4 5 6 5 4 5 6 7 7 7 7 6 5 5 5 6 6 5 5 4 4 3 4 4 3 4 3 3 3 4 4 4 4 3 3 2 3 2 0 1 1 1 2 2 1 1 1 3 2 3 2 1 1 2 2 1 2 3 3 3 2 4 4 3 4 6 5 4 6 6 6 4 4
12 11 11 9 12 11 10 6 6 7 6 8 4 4 5 5 5 4 5 4 7 7 6 6 7 6 6 4 5 5 4 4 4 5 6 6 5 4 3 3 3 3 4 4 3 3 3 4 3 2 0 0 1 1 2 2 1 1 1 1 3 3 4 3 2 4 2 1 2 1 0 0 1 2 3 2 4 5 8 8 7 5 5 2 2
11 11 10 10 11 11 10 9 7 6 6 8 5 5 5 4 4 4 5 4 5 6 6 6 5 6 7 6 6 6 5 5 5 5 6 5 5 5 5 4 3 2 2 2 2 3 4 4 3 3 2 1 1 0 1 2 2 1 1 1 1 2 4 3 2 2 1 2 1 2 1 4 2 0 1 4 4 4 4 4 4 4 3 1 4
10 13 10 11 12 12 11 10 8 5 7 9 6 6 6 4 4 4 5 5 4 6 6 5 6 5 6 6 5 6 6 6 5 5 5 5 4 3 4 4 3 1 1 1 1 2 3 4 3 3 3 3 2 1 2 2 1 1 2 0 2 1 2 2 2 1 2 1 2 3 3 2 3 4 0 4 3 2 1 2 7 5 5 4 3
Wind_Direction
155 137 140 143 135 135 132 129 127 128 131 125 123 121 116 109 105 102 98 95 85 87 90 91 90 87 84 82 80 81 84 90 95 99 100 96 93 93 96 103 98 95 88 102 97 104 109 101 96 92 94 97 96 98 103 103 100 100 100 103 103 100 97 94 92 92 91 90 89 91 93 88 87 87 79 80 90 87 87 84 83 79 77 83 85
152 140 141 144 140 141 138 137 133 129 132 127 125 118 110 104 101 96 86 89 96 91 87 85 87 88 86 82 85 85 87 90 95 100 99 97 96 94 94 88 94 104 110 103 102 107 106 104 103 103 99 97 99 101 101 103 100 100 105 104 103 103 99 96 96 94 92 93 94 90 88 90 88 85 90 88 88 90 89 87 83 78 78 82 81
136 141 141 148 146 145 143 143 143 149 149 130 124 117 108 104 100 98 97 95 89 82 80 82 82 87 95 93 89 93 97 99 101 100 96 97 95 94 93 93 105 124 114 102 106 110 109 109 107 109 108 104 103 104 102 102 100 99 104 105 107 103 100 98 96 93 91 88 85 83 85 86 86 88 88 94 92 90 89 87 87 86 85 82 80
134 137 143 152 151 151 149 145 151 170 149 131 122 112 107 106 104 101 103 93 84 79 78 84 91 97 95 96 101 101 97 96 98 97 96 96 98 100 96 104 113 112 109 104 108 113 111 113 113 113 108 106 103 101 104 105 105 106 109 109 108 106 102 102 99 97 93 92 89 84 70 76 90 96 99 91 89 85 85 85 85 83 82 81 80
137 141 146 145 151 157 151 153 167 177 133 129 117 107 107 109 108 106 95 91 89 85 83 86 99 97 100 103 105 106 106 101 91 94 101 101 98 100 101 107 115 117 117 111 112 111 113 111 113 112 109 106 104 105 104 104 105 109 112 112 109 108 105 97 98 96 94 92 91 86 84 77 76 83 89 90 89 87 87 88 88 86 82 79 77
137 138 147 151 160 155 154 161 174 142 133 123 111 109 113 113 111 106 100 97 92 90 99 103 105 106 106 110 110 106 103 102 106 105 105 105 104 102 102 104 108 116 127 118 117 116 111 114 116 114 109 105 105 109 112 109 107 109 110 110 107 104 105 106 100 96 96 93 81 74 81 84 80 71 88 90 89 87 88 86 84 82 79 78 77
134 141 147 151 152 156 157 160 145 134 130 117 111 115 117 116 115 110 102 102 101 104 106 108 107 114 121 116 109 111 111 106 98 101 104 105 111 120 103 99 105 129 144 123 116 119 120 115 113 110 107 108 109 112 115 115 112 110 110 107 106 102 101 97 95 95 92 85 86 75 73 73 73 77 82 88 89 88 88 87 84 83 82 80 78
136 141 145 145 148 159 159 155 137 135 126 117 116 119 121 119 116 108 106 110 112 111 110 106 106 109 110 108 109 109 109 110 109 106 105 108 107 98 94 104 123 140 137 112 114 119 116 114 112 111 109 112 116 118 116 113 112 113 111 108 106 101 91 94 103 96 90 75 77 76 69 69 75 75 88 84 85 87 88 88 85 83 82 81 79
138 139 139 142 150 157 157 141 137 131 122 118 118 121 124 119 112 107 107 108 108 108 104 105 113 116 114 111 111 108 108 108 106 105 107 107 97 85 91 108 133 158 135 106 111 116 117 116 112 110 113 115 116 117 119 116 113 114 113 110 102 104 105 106 103 94 78 74 86 80 78 70 71 73 91 97 92 91 88 85 82 82 81 80 79
133 127 132 136 145 148 142 139 134 127 121 117 123 127 126 120 113 104 107 113 110 105 107 109 108 109 108 108 107 107 105 105 104 100 102 98 90 95 107 124 147 142 113 116 116 118 121 117 115 114 115 118 119 123 122 118 115 114 109 108 107 97 98 106 104 94 88 80 85 90 87 87 83 82 95 96 93 97 91 85 88 85 84 82 81
126 127 130 135 144 141 140 138 133 125 121 126 125 126 125 124 116 111 111 109 114 116 117 111 107 106 103 104 103 103 100 98 100 102 101 99 102 104 114 124 131 136 125 118 125 125 120 118 117 118 118 117 117 122 120 118 117 110 105 109 113 110 103 108 95 84 80 84 84 85 91 91 90 94 97 97 97 97 93 89 82 82 83 83 82
124 129 132 135 141 140 139 135 129 126 128 127 127 126 123 119 114 113 110 112 116 116 115 113 109 105 104 103 103 98 95 98 99 100 99 96 97 112 120 122 128 131 125 122 117 116 118 121 120 119 117 118 121 123 122 121 118 112 108 106 105 100 112 99 89 86 89 86 87 88 82 79 83 96 101 107 104 93 87 85 85 85 84 84 82
128 128 130 133 134 141 136 133 132 132 131 128 126 124 122 119 115 109 107 109 111 111 110 109 108 109 108 103 98 99 101 100 100 102 101 97 108 113 117 122 126 124 119 117 118 118 120 120 117 118 118 120 120 125 125 122 120 122 119 117 112 104 92 105 90 87 85 83 79 80 80 77 88 96 98 98 97 93 88 86 87 86 85 84 84
126 130 131 133 139 137 136 136 136 135 131 126 123 123 121 118 113 113 112 111 108 107 106 106 108 109 105 100 99 100 99 98 96 98 101 97 101 114 114 117 121 122 119 116 116 118 122 122 122 122 122 122 125 127 125 122 125 127 124 120 116 101 109 102 94 91 93 92 86 84 88 92 93 93 97 99 98 96 92 89 88 87 87 85 86
132 134 135 135 133 135 140 141 140 135 129 123 121 120 120 118 118 117 114 109 106 104 104 105 108 106 102 103 103 104 104 102 103 102 94 101 113 113 115 115 119 120 117 117 119 119 122 121 121 124 123 127 132 135 129 122 118 111 103 104 107 120 112 96 97 99 94 93 92 93 90 92 97 96 99 98 97 94 93 91 90 89 88 87 86
133 132 131 130 135 142 140 144 139 132 126 121 120 121 121 120 118 115 112 108 107 105 104 107 109 106 106 108 108 106 105 102 98 96 96 105 110 113 116 119 122 122 120 119 121 120 124 123 126 124 123 128 133 130 123 115 109 107 105 119 125 132 115 106 100 99 103 98 100 97 91 97 102 103 102 100 97 95 95 94 93 91 90 88 85
128 131 133 138 141 138 141 138 136 130 124 124 124 122 122 120 117 115 112 110 107 105 106 107 107 106 107 108 108 106 102 102 103 105 104 105 115 122 119 119 120 122 122 121 122 124 124 126 126 126 128 131 135 124 116 116 113 119 123 129 142 123 111 103 101 102 104 103 96 86 90 91 107 106 104 103 101 99 97 95 95 94 93 90 89
136 137 137 141 142 142 139 133 126 119 125 126 127 126 124 122 119 115 113 113 111 111 111 111 109 107 108 107 105 104 102 102 101 99 104 112 113 116 119 121 125 128 125 123 123 124 124 126 125 127 127 131 123 116 116 112 105 94 66 123 123 116 109 98 94 96 98 98 92 98 93 110 108 108 106 105 103 101 98 97 98 97 95 92 89
137 139 144 145 147 141 133 131 128 126 120 118 119 128 127 125 122 119 118 116 114 112 111 110 112 110 106 105 104 103 102 99 99 97 101 104 111 113 117 120 121 121 122 123 125 126 129 129 131 133 133 124 119 118 112 102 86 77 54 109 108 110 106 97 96 94 92 92 98 100 111 116 115 111 109 107 106 104 102 101 100 99 98 96 92
140 147 147 148 139 132 141 142 142 137 134 125 117 121 128 125 124 123 120 117 116 114 110 107 108 107 106 100 97 94 95 97 98 105 109 116 119 116 117 115 118 120 123 126 128 128 127 130 131 129 122 117 117 119 119 98 92 65 85 104 111 116 100 89 94 97 109 114 117 115 122 117 114 112 110 110 109 108 107 106 103 100 97 96 92
152 154 147 138 138 143 147 144 153 146 130 124 120 124 129 125 123 122 118 117 115 111 108 108 106 103 93 90 83 70 68 76 82 92 98 104 111 115 114 118 121 123 124 123 123 123 122 121 120 120 118 118 121 124 117 100 65 43 70 94 128 105 107 104 108 115 113 115 126 135 127 118 115 116 115 116 114 112 114 116 113 108 103 96 91
152 141 134 137 144 149 144 143 141 129 128 126 128 125 118 115 104 103 107 113 114 110 103 95 88 75 88 81 69 62 70 89 90 93 93 101 106 112 115 116 119 120 121 121 121 122 121 122 124 124 125 125 126 92 111 79 75 20 26 45 55 126 119 120 119 123 122 126 129 136 125 122 121 120 123 124 120 118 118 114 113 111 106 102 93
130 129 132 139 145 135 132 138 135 138 134 128 123 119 107 110 116 116 118 119 117 106 106 108 106 100 94 93 85 68 80 95 102 107 107 111 112 113 116 118 119 120 121 123 125 127 128 130 134 135 137 140 134 149 170 212 255 211 269 17 108 121 118 119 123 132 137 137 127 134 131 127 128 131 131 128 125 124 122 122 120 115 108 99 97
130 129 133 136 139 136 143 142 147 141 126 123 122 119 116 129 133 127 120 107 95 97 98 106 109 105 104 104 94 94 88 89 111 108 103 92 107 112 115 119 120 118 118 117 127 131 137 141 145 149 148 144 159 184 195 206 186 185 153 119 116 108 118 124 129 134 131 134 131 138 133 137 140 139 134 131 130 128 125 122 120 117 113 106 97
125 122 128 139 140 142 140 140 142 139 131 134 132 130 126 124 125 123 109 101 105 103 110 110 112 113 109 110 124 122 104 109 101 97 94 101 90 86 88 83 83 97 108 62 78 126 123 132 156 165 222 221 222 218 207 187 196 147 129 133 102 108 116 120 124 127 122 117 138 139 142 149 147 143 140 137 136 133 131 127 120 116 112 108 100
125 130 138 135 136 134 138 142 143 137 135 136 137 137 133 127 127 131 113 108 112 106 99 104 101 113 129 140 150 120 115 109 106 119 121 115 113 116 120 116 119 124 122 125 129 140 192 188 194 211 240 242 235 220 203 189 184 139 154 129 118 120 120 120 119 114 107 117 145 152 156 155 153 148 145 143 141 140 137 135 131 121 116 120 122
141 135 133 133 135 140 148 142 135 137 137 135 127 122 130 137 131 132 118 109 116 113 103 91 101 130 162 163 137 130 128 123 113 123 130 139 140 145 145 154 158 158 133 154 185 209 210 200 201 215 233 241 241 220 199 198 182 161 164 151 129 129 133 130 126 120 116 121 155 164 168 164 161 156 151 151 146 147 151 149 141 146 137 120 118
133 138 137 141 143 148 155 143 138 146 142 133 127 131 142 146 151 130 120 144 126 126 129 148 144 181 162 136 135 139 140 130 132 139 154 148 166 149 150 133 116 126 191 195 178 205 215 207 208 209 216 233 209 191 175 179 153 138 152 148 145 140 136 138 137 135 129 133 163 178 180 174 167 162 163 158 162 158 163 171 163 169 163 144 144
136 143 139 143 149 153 152 143 145 141 137 137 133 139 145 118 121 128 142 145 141 143 145 142 141 194 169 143 154 148 146 146 153 163 161 181 162 144 145 147 142 176 185 246 191 208 224 212 203 205 204 198 156 134 134 146 152 159 130 153 164 147 139 139 139 140 139 145 167 190 184 183 175 171 170 167 164 170 170 176 179 173 188 201 189
143 141 144 147 151 154 147 152 145 143 146 142 134 132 136 138 136 135 158 138 167 143 141 135 157 174 175 179 151 125 140 155 161 164 154 133 122 128 132 138 149 179 204 241 235 253 265 336 0 344 180 171 163 193 167 159 167 163 149 140 146 153 148 146 148 150 148 155 173 196 184 185 183 178 180 178 174 181 188 188 199 192 204 208 206
139 146 147 149 151 154 150 154 147 149 153 133 128 133 139 146 151 140 164 154 181 146 152 147 153 149 133 101 106 105 115 147 145 134 117 110 120 129 144 154 162 187 205 216 197 228 274 266 269 271 316 168 189 178 152 146 153 162 165 148 151 144 148 147 152 149 151 163 169 184 194 187 187 186 184 190 188 198 195 199 201 207 209 216 219
143 144 149 149 152 154 153 153 154 159 144 136 135 147 156 160 152 142 172 179 173 164 150 133 133 132 124 113 110 117 115 112 118 109 112 115 112 117 112 112 149 185 184 191 199 191 201 211 212 229 236 168 170 154 141 137 153 160 154 159 155 156 146 149 154 156 157 161 164 176 193 196 193 191 194 195 202 204 207 209 216 226 237 226 224
137 143 149 152 155 155 155 160 161 159 143 149 151 154 157 156 159 176 185 166 156 142 130 135 133 127 128 120 120 126 119 129 115 121 115 115 124 132 119 90 53 114 119 60 325 290 234 211 245 270 357 290 133 156 147 139 157 182 146 156 151 169 157 153 155 158 161 165 171 177 185 190 190 198 201 206 209 212 212 215 222 224 231 235 241
135 142 150 153 160 150 154 160 159 162 162 158 151 156 164 165 177 178 150 138 139 138 137 140 132 117 107 113 113 105 101 88 97 99 111 108 103 103 112 91 67 73 76 50 19 346 59 48 25 25 350 1 147 162 111 142 183 158 128 128 119 159 155 150 163 166 163 169 172 177 180 180 187 193 201 209 213 216 218 221 222 227 230 233 235
130 144 156 149 151 140 151 149 151 159 149 140 153 158 160 165 149 139 136 143 142 128 130 129 121 120 119 113 115 123 116 102 98 104 106 122 118 110 85 93 86 72 65 25 6 13 68 62 50 28 357 27 359 144 133 146 123 101 124 117 146 82 76 135 166 164 167 175 171 179 171 180 184 187 197 203 215 218 219 222 223 226 230 234 237
140 157 154 153 139 145 142 149 145 143 139 142 146 138 140 134 127 135 135 126 115 123 128 126 126 127 126 126 134 124 104 108 106 105 108 127 122 116 129 114 99 84 80 18 19 42 68 54 29 40 23 350 23 6 104 123 129 135 134 148 156 101 127 129 167 147 178 169 174 173 173 188 184 189 194 198 207 218 221 223 225 228 231 236 239
146 155 149 148 143 140 137 154 143 139 146 149 147 141 139 116 122 133 130 126 119 119 122 126 130 126 127 127 130 114 108 106 113 120 124 126 131 128 138 115 114 115 88 47 8 235 81 66 19 4 52 13 2 356 329 204 141 164 124 125 128 134 125 218 258 174 153 152 172 174 182 187 191 192 188 195 197 207 223 223 225 227 233 236 240
146 147 149 143 143 136 139 152 136 140 144 147 142 136 132 121 119 116 125 125 127 117 113 118 123 131 130 128 128 127 125 124 116 111 121 137 122 121 129 134 132 119 84 62 344 359 78 98 36 332 19 39 346 343 318 281 174 125 121 126 106 128 176 175 161 148 162 177 184 186 180 185 188 195 188 188 191 200 214 222 225 230 233 236 238
146 147 144 139 133 137 141 147 138 139 139 141 131 124 121 106 98 99 101 103 109 105 110 119 128 124 125 126 128 134 134 133 136 138 112 104 102 100 106 131 120 96 102 69 28 34 37 32 39 321 335 289 265 259 249 309 48 65 101 120 120 171 177 196 187 191 195 192 199 197 188 185 188 190 184 184 189 189 208 209 215 222 234 236 239
141 141 138 133 132 132 134 133 136 130 132 134 117 130 118 117 114 98 96 106 116 120 123 134 128 120 128 123 121 120 126 137 139 133 120 119 118 134 132 121 119 126 108 89 85 99 88 73 346 357 331 329 278 251 328 16 70 53 94 133 146 185 210 215 216 215 203 204 211 204 181 187 210 193 185 178 190 187 202 206 205 211 221 233 236
139 141 139 143 135 139 134 140 142 133 136 140 136 152 139 122 122 135 138 140 139 134 136 135 122 131 130 125 123 117 112 114 129 123 119 118 107 124 137 128 164 133 123 129 83 124 173 170 222 290 332 335 319 356 311 150 86 30 11 316 165 225 220 226 225 238 237 216 207 195 192 169 214 197 193 166 184 187 198 203 205 204 216 228 233
145 141 142 150 137 145 139 143 142 141 149 155 151 162 156 149 144 157 144 144 143 136 140 154 139 132 126 131 135 130 123 131 134 126 125 131 138 134 130 154 138 128 135 123 147 148 150 175 243 315 280 217 270 239 236 82 46 161 166 239 326 312 264 243 259 265 241 231 205 208 185 176 200 197 189 152 179 184 201 204 194 201 213 217 228
145 143 142 147 139 149 142 146 148 150 160 166 155 167 164 151 147 154 146 135 147 134 136 139 130 125 131 133 136 143 149 162 182 150 145 155 159 158 169 165 140 139 122 137 116 256 173 208 202 192 284 277 227 239 129 126 187 188 160 83 304 10 318 323 300 250 262 248 213 214 181 185 192 181 182 162 169 189 204 193 189 197 202 210 220
147 148 150 157 146 153 146 148 152 152 163 179 169 172 165 169 145 148 146 149 159 124 115 114 121 122 132 138 147 151 156 160 188 190 178 153 160 179 178 150 153 145 149 161 188 235 192 210 201 183 116 356 341 264 234 162 150 103 35 186 225 140 351 297 252 278 216 231 208 214 182 168 180 174 160 183 168 179 192 178 181 177 185 200 210
154 157 156 167 149 159 152 150 154 156 162 184 174 168 163 169 147 130 119 93 87 105 112 145 135 140 137 162 176 160 165 170 192 212 170 155 173 185 169 151 154 163 158 183 197 205 199 203 189 173 175 178 292 253 322 127 165 150 138 61 7 23 241 252 319 287 295 164 223 165 178 174 166 167 173 206 182 181 176 180 182 184 198 221 225
157 160 157 166 146 156 149 149 153 155 162 185 179 168 166 168 141 130 135 130 129 134 156 172 166 168 171 173 170 183 176 175 192 219 151 166 194 179 170 155 154 155 167 198 222 178 216 177 200 186 209 189 217 14 308 359 174 224 168 179 165 172 219 255 96 251 299 333 201 172 165 180 161 156 182 197 194 193 190 169 184 198 218 215 234
160 159 157 164 150 156 149 149 157 159 162 180 175 160 152 165 143 144 150 151 151 174 166 174 170 182 154 168 169 187 193 175 189 200 161 188 191 187 180 171 174 160 169 151 197 204 221 193 187 135 208 134 94 174 201 265 0 345 342 309 314 264 180 37 291 59 14 321 357 214 179 173 162 157 174 195 185 178 194 169 183 213 213 226 233
160 160 161 163 155 162 159 152 154 164 161 173 172 153 151 159 146 143 150 147 163 166 167 173 172 182 165 178 163 182 182 181 179 203 167 187 191 189 186 188 193 179 175 188 211 214 230 141 162 153 94 31 123 117 52 354 121 266 348 346 359 348 351 22 185 137 175 78 331 338 15 119 207 165 208 187 180 174 176 172 189 212 228 227 234
160 167 166 158 158 158 161 155 152 164 158 173 158 153 148 154 156 148 151 155 156 169 164 161 160 167 168 182 163 181 179 193 197 187 175 187 184 188 187 190 193 187 187 196 213 221 198 138 143 122 201 278 69 152 97 289 92 291 317 311 9 1 334 333 314 75 109 100 317 70 270 66 103 208 228 164 199 175 164 181 194 191 218 225 124
159 170 164 151 158 156 159 164 163 161 162 169 153 155 152 149 152 157 156 167 149 148 150 157 149 154 167 173 170 175 182 196 198 184 177 182 178 185 173 182 192 200 181 204 228 205 142 142 157 159 188 206 318 123 204 236 204 281 160 174 58 352 3 348 1 46 8 113 149 300 267 120 65 304 145 160 211 184 207 119 156 163 221 198 155
159 170 162 152 157 157 159 165 172 159 163 168 154 160 156 161 164 166 166 171 171 145 150 150 140 155 156 173 161 165 174 190 179 183 174 184 181 181 159 172 187 182 167 163 291 181 146 147 166 171 195 188 226 272 286 290 287 313 343 271 215 174 208 261 278 355 111 54 27 335 359 297 162 111 4 186 174 244 123 127 127 158 177 178 156